Location: *
(47.2969°N, 10.2930°E)
Time: 13:24:03
(UTC+00:00)

Cosmos 2333 Rocket - Pass Details

Date: 09 April 2020
Orbit: 841 x 860 km, 70.8° (Epoch: 27 May)

Event Time Altitude Azimuth Distance (km) Brightness Sun altitude
Rises 23:35:52 0° 334° (NNW) 3,408 6.1 -34.6°
Reaches altitude 10° 23:38:23 10° 339° (NNW) 2,470 5.3 -34.5°
Enters shadow 23:42:30 43° 10° (N) 1,166 3.2 -34.4°
